Weather in Plishkari

Russia / Perm Krai     57°00′05″N   55°04′14″E
temp.,
°C
wind,
m/s
gust,
m/s
humid.,
%
clouds,
%
prec.,
mm/h
press.,
hPa
HPBL,
m
28 february, sun
sun2823:00−13e61094100 0.8 1005400
02:00−15ene599597 0.3 1004307
05:00−15ene599599 0.5 1005327
08:00−15ne5995100 0.3 1005374
11:00−13ne61093100 0.6 1005440
14:00−11ne6891100 0.3 1006523
17:00−12ne6991100 0.4 1008557
20:00−14nne5994100 0.2 1010349
1 march, mon
mon123:00−16nne489596 0.3 1012207
02:00−18nne469675 0.0 1013108
05:00−19nne369874 0.0 101593
08:00−21nne3410058 0.0 101760
11:00−17nne359344 0.0 1018251
14:00−13nne238689 0.0 1018414
17:00−12nnw238994 0.1 1018413
20:00−18wsw1110091 0.0 101720
2 march, tue
tue223:00−19sw339854 0.0 101722
02:00−20ssw4710042 0.0 1015107
05:00−20s5109867 0.0 1013234
08:00−19s71296100 0.0 1010285
11:00−17s71395100 0.1 1007341
14:00−14s81393100 0.6 1004470
17:00−11s81293100 1.0 1003598
20:00−11s61294100 0.7 1001522
3 march, wed
wed323:00−10s61294100 1.3 1000458
02:00−10sse41095100 0.8 999401
05:00−10sse4895100 1.6 998296
08:00−10ese2296100 0.8 99763
11:00−8nnw1191100 1.0 997226
14:00−6nw3489100 0.0 998419
17:00−5wnw4694100 0.2 999575
20:00−6nw41196100 0.3 1000413
4 march, thu
thu423:00−10nw359495 0.3 100297
02:00−12nw479470 0.1 100395
05:00−14wnw349759 0.1 100453
08:00−12w4796100 0.3 1005178
11:00−12w469698 0.4 1006258
14:00−8wsw579199 0.0 1005506
17:00−7sw698999 0.1 1004712
20:00−8ssw81493100 0.2 1002554